Location: Arcones
(41.1182°N, 3.7238°W)
Time: 04:29:23
(UTC+00:00)

MOS 1 Rocket - Pass Details

Date: 11 December 2025
Orbit: 609 x 814 km, 97.4° (Epoch: 13 January)

Event Time Altitude Azimuth Distance (km) Brightness Sun altitude
Rises 17:09:27 0° 135° (SE) 3,100 6.5 -4.7°
Reaches altitude 10° 17:11:56 10° 124° (ESE) 2,219 5.6 -5.1°
Maximum altitude 17:16:01 27° 67° (ENE) 1,416 4.3 -5.8°
Drops below altitude 10° 17:20:18 10° 11° (N) 2,334 5.7 -6.5°
Sets 17:22:58 0° 360° (N) 3,293 6.5 -7.0°
